"2009-02-21 00:00:30",648347,13.42,76.52,5.348,0.973,3.624,101.4542,3.01,5.061,35.96,0,109.9,13.41,3.77,38.5
"2009-02-21 00:01:00",648348,12.96,77.79,5.822,0.622,4.002,101.3559,2.759,4.737,37.49,0,109.9,13.42,3.52,39.8
"2009-02-21 00:01:30",648349,12.59,73.31,3.203,1.127,3.941,101.1949,2.348,4.377,38.71,0,109.9,13.42,3.11,35.3
"2009-02-21 00:02:00",648350,11.04,70.47,5.679,1.077,3.752,101.0144,1.888,3.987,40.36,0,109.8,13.42,2.65,32.5
"2009-02-21 00:02:30",648351,10.83,71.05,11.43,1.499,3.931,100.7576,1.232,3.38,42.35,0,109.8,13.43,1.99,33.1
"2009-02-21 00:03:00",648352,12.35,64.41,9.06,1.895,3.659,100.5785,0.776,2.865,44.03,0,109.8,13.43,1.53,26.4
"2009-02-21 00:03:30",648353,14.35,73.88,10.32,1.067,3.788,100.4099,0.346,2.433,45.43,0,109.8,13.43,1.10,35.9
"2009-02-21 00:04:00",648354,20.93,75.56,4.511,1.153,3.789,100.2963,0.056,2.063,46.55,0,109.8,13.43,0.81,37.6
"2009-02-21 00:04:30",648355,20.06,60.07,5.355,1.34,6.895,100.2274,-0.12,1.824,43.99,0,109.8,13.43,0.63,22.1
"2009-02-21 00:05:00",648356,21.14,59.75,3.481,0.817,6.976,100.1627,-0.285,1.626,42.2,0,109.8,13.43,0.47,21.8
"2009-02-21 00:05:30",648357,21.05,64.77,3.563,0.735,6.503,100.1073,-0.426,1.423,40.93,0,109.8,13.44,0.32,26.8
"2009-02-21 00:06:00",648358,21.59,72.08,4.348,0.909,4.781,100.0684,-0.525,1.257,42.83,0,109.8,13.44,0.22,34.1
"2009-02-21 00:06:30",648359,21.96,69.22,4.864,1.258,4.733,100.0226,-0.642,1.143,45.99,0,109.8,13.44,0.11,31.2
"2009-02-21 00:07:00",648360,22.24,66.24,3.675,0.758,5.013,99.98473,-0.738,1.007,46.54,0,109.8,13.44,0.01,28.2
"2009-02-21 00:07:30",648361,22,67.71,4.223,0.843,4.802,99.93924,-0.854,0.868,47.97,0,109.8,13.44,-0.11,29.7
"2009-02-21 00:08:00",648362,21.74,69.97,3.273,0.672,4.282,99.88499,-0.993,0.718,49.28,0,109.8,13.44,-0.24,32.0
"2009-02-21 00:08:30",648363,22.05,71.29,3.618,0.663,4.462,99.8248,-1.146,0.619,50.22,0,109.8,13.44,-0.40,33.3
"2009-02-21 00:09:00",648364,22.26,71.07,3.988,0.613,4.391,99.76319,-1.303,0.489,50.77,0,109.8,13.44,-0.56,33.1
"2009-02-21 00:09:30",648365,22.28,74.64,3.19,0.803,3.84,99.69396,-1.48,0.315,51.72,0,109.7,13.45,-0.73,36.6
"2009-02-21 00:10:00",648366,21.84,74.98,2.654,0.961,3.571,99.62756,-1.649,0.165,52.47,0,109.7,13.45,-0.90,37.0
"2009-02-21 00:10:30",648367,22.02,74.13,3.63,0.691,3.593,99.56087,-1.819,0.023,53.24,0,109.7,13.45,-1.07,36.1
"2009-02-21 00:11:00",648368,21.82,72.03,4.316,1.075,3.545,99.49248,-1.993,-0.133,54.01,0,109.7,13.45,-1.25,34.0
"2009-02-21 00:11:30",648369,22.49,72.18,4.605,1.262,3.885,99.43565,-2.138,-0.275,54.69,0,109.7,13.46,-1.39,34.2
"2009-02-21 00:12:00",648370,21.42,73.1,3.32,0.881,3.531,99.38667,-2.263,-0.451,55.05,0,109.7,13.47,-1.52,35.1
"2009-02-21 00:12:30",648371,20.11,70.51,3.543,0.836,3.676,99.32839,-2.411,-0.598,55.52,0,109.7,13.47,-1.67,32.5
"2009-02-21 00:13:00",648372,19.2,69.71,4.147,0.783,3.548,99.27296,-2.553,-0.766,56.12,0,109.7,13.47,-1.81,31.7
"2009-02-21 00:13:30",648373,18.98,70.2,4.226,0.991,3.694,99.21359,-2.704,-0.924,56.65,0,109.7,13.47,-1.96,32.2
"2009-02-21 00:14:00",648374,20.09,68.77,3.715,0.768,3.458,99.15508,-2.853,-1.079,57.26,0,109.6,13.48,-2.11,30.8
"2009-02-21 00:14:30",648375,20.67,67.73,3.69,0.68,3.295,99.09966,-2.994,-1.213,57.76,0,109.7,13.48,-2.25,29.7
"2009-02-21 00:15:00",648376,20.29,65.54,3.86,0.962,3.289,99.03635,-3.155,-1.379,58.28,0,109.7,13.48,-2.41,27.5
"2009-02-21 00:15:30",648377,21.26,61.4,4.208,0.689,3.432,98.95494,-3.363,-1.538,59.02,0,109.6,13.48,-2.62,23.4
"2009-02-21 00:16:00",648378,21.66,61.97,3.715,0.827,3.446,98.85598,-3.615,-1.729,59.67,0,109.6,13.49,-2.88,24.0
"2009-02-21 00:16:30",648379,21.38,66.55,4.149,0.615,3.461,98.77477,-3.822,-1.93,60.22,0,109.6,13.49,-3.08,28.6
"2009-02-21 00:17:00",648380,19.88,68.51,3.761,0.857,3.367,98.71504,-3.974,-2.146,60.69,0,109.6,13.49,-3.24,30.5
"2009-02-21 00:17:30",648381,20.53,66.48,3.85,0.793,3.413,98.65929,-4.116,-2.31,61.22,0,109.6,13.5,-3.38,28.5
"2009-02-21 00:18:00",648382,20.65,66.14,4.256,0.638,3.194,98.61651,-4.225,-2.461,61.85,0,109.6,13.5,-3.49,28.1
"2009-02-21 00:18:30",648383,20.43,64.2,4.288,0.663,3.416,98.5721,-4.338,-2.592,62.43,0,109.6,13.5,-3.60,26.2
"2009-02-21 00:19:00",648384,22.97,64.55,4.266,1.08,3.327,98.52451,-4.459,-2.721,62.88,0,109.6,13.5,-3.72,26.6
"2009-02-21 00:19:30",648385,24.52,63.74,4.203,0.59,3.466,98.47302,-4.59,-2.858,63.39,0,109.6,13.51,-3.85,25.7
"2009-02-21 00:20:00",648386,24.03,66.07,4.139,0.752,3.304,98.41562,-4.736,-3.013,64.03,0,109.5,13.51,-4.00,28.1
"2009-02-21 00:20:30",648387,24.1,66.57,4.098,0.815,3.477,98.365,-4.865,-3.142,64.71,0,109.5,13.51,-4.13,28.6
"2009-02-21 00:21:00",648388,23.37,65.61,3.773,0.685,3.34,98.32287,-4.972,-3.278,65.3,0,109.5,13.51,-4.24,27.6
"2009-02-21 00:21:30",648389,22.93,67.11,4.321,0.82,3.552,98.28713,-5.063,-3.396,66.04,0,109.5,13.51,-4.33,29.1
"2009-02-21 00:22:00",648390,22.65,69.01,3.882,0.931,3.38,98.26155,-5.129,-3.519,66.51,0,109.5,13.52,-4.39,31.0
"2009-02-21 00:22:30",648391,21.97,66.31,4.673,1.207,3.235,98.24074,-5.181,-3.581,67.11,0,109.5,13.52,-4.45,28.3
"2009-02-21 00:23:00",648392,20.08,69.14,3.607,1.338,3.277,98.22005,-5.234,-3.68,67.6,0,109.5,13.52,-4.50,31.1
"2009-02-21 00:23:30",648393,20.09,69.72,4.125,1.038,3.279,98.20042,-5.284,-3.752,67.95,0,109.5,13.52,-4.55,31.7
"2009-02-21 00:24:00",648394,19.62,68.93,4.935,0.782,3.311,98.18369,-5.327,-3.807,68.3,0,109.5,13.52,-4.59,30.9
"2009-02-21 00:24:30",648395,19.93,65.25,4.667,1.277,3.371,98.16673,-5.37,-3.846,68.65,0,109.5,13.52,-4.64,27.2
"2009-02-21 00:25:00",648396,21.33,62.01,4.227,1.521,3.235,98.14946,-5.414,-3.912,69.17,0,109.5,13.52,-4.68,24.0
"2009-02-21 00:25:30",648397,23.35,64.6,4.1,0.985,3.266,98.13278,-5.456,-3.964,69.71,0,109.5,13.52,-4.72,26.6
"2009-02-21 00:26:00",648398,21.89,65.86,3.458,0.879,3.422,98.11098,-5.512,-4.009,70.06,0,109.4,13.52,-4.78,27.9
"2009-02-21 00:26:30",648399,21.51,63.24,3.734,0.809,3.348,98.10217,-5.534,-4.067,70.21,0,109.5,13.53,-4.80,25.2
"2009-02-21 00:27:00",648400,22.65,64.47,3.946,0.72,3.638,98.09781,-5.545,-4.112,70.59,0,109.4,13.53,-4.81,26.5
"2009-02-21 00:27:30",648401,22.42,62.97,3.693,1.48,3.421,98.08801,-5.57,-4.154,70.59,0,109.5,13.54,-4.84,25.0
"2009-02-21 00:28:00",648402,22.53,63.72,4.423,1.289,3.212,98.08515,-5.578,-4.185,71.03,0,109.4,13.54,-4.85,25.7
"2009-02-21 00:28:30",648403,20.51,63.83,5.01,0.84,3.398,98.08785,-5.571,-4.196,71.48,0,109.4,13.54,-4.84,25.8
"2009-02-21 00:29:00",648404,19.35,66.95,4.015,1.168,3.21,98.06944,-5.618,-4.232,71.79,0,109.4,13.55,-4.89,28.9
"2009-02-21 00:29:30",648405,20.96,64.91,4.801,1.293,3.181,98.06118,-5.639,-4.258,72,0,109.4,13.55,-4.91,26.9
"2009-02-21 00:30:00",648406,19.74,66.5,4.282,0.626,3.237,98.06396,-5.632,-4.273,72.26,0,109.4,13.55,-4.90,28.5
"2009-02-21 00:30:30",648407,18.1,70.35,5.163,1.065,3.3,98.05546,-5.653,-4.302,72.46,0,109.4,13.55,-4.92,32.3
"2009-02-21 00:31:00",648408,16.66,71.8,4.092,0.802,2.943,98.03537,-5.704,-4.334,72.59,0,109.4,13.55,-4.97,33.8
"2009-02-21 00:31:30",648409,15.79,68.4,4.167,0.65,3.053,98.02717,-5.725,-4.358,72.84,0,109.4,13.55,-4.99,30.4
"2009-02-21 00:32:00",648410,15.85,74.62,4.712,0.708,2.967,98.00423,-5.784,-4.393,73.11,0,109.4,13.55,-5.05,36.6
"2009-02-21 00:32:30",648411,14.66,67.93,4.398,0.752,2.946,98.00076,-5.792,-4.404,73.39,0,109.4,13.56,-5.06,29.9
"2009-02-21 00:33:00",648412,14.25,63.53,5.399,0.9,2.796,98.00513,-5.781,-4.444,73.63,0,109.4,13.56,-5.05,25.5
"2009-02-21 00:33:30",648413,13.86,56.92,4.763,0.753,2.789,97.99274,-5.813,-4.469,73.85,0,109.4,13.56,-5.08,18.9
"2009-02-21 00:34:00",648414,14.08,59.05,4.482,0.701,2.78,97.98843,-5.824,-4.479,74.06,0,109.4,13.57,-5.09,21.0
"2009-02-21 00:34:30",648415,13.97,61.61,4.702,0.795,2.7,97.99148,-5.816,-4.497,74.22,0,109.4,13.57,-5.08,23.6
"2009-02-21 00:35:00",648416,12.87,62.81,4.727,0.708,2.704,97.99453,-5.808,-4.498,74.37,0,109.3,13.57,-5.08,24.8
"2009-02-21 00:35:30",648417,14.16,68.2,4.884,0.796,2.652,97.98233,-5.839,-4.508,74.53,0,109.4,13.57,-5.11,30.2
"2009-02-21 00:36:00",648418,14.36,64.92,5.677,0.95,2.591,97.96195,-5.891,-4.54,74.64,0,109.4,13.57,-5.16,26.9
"2009-02-21 00:36:30",648419,15.17,64.08,4.901,0.69,2.547,97.96195,-5.891,-4.541,74.78,0,109.4,13.57,-5.16,26.1
"2009-02-21 00:37:00",648420,15.5,65.78,4.917,0.796,2.32,97.95602,-5.906,-4.593,74.87,0,109.4,13.57,-5.18,27.8
"2009-02-21 00:37:30",648421,14.75,64.75,4.397,0.8,2.598,97.94214,-5.942,-4.588,75.01,0,109.3,13.58,-5.21,26.8
"2009-02-21 00:38:00",648422,15.1,71.58,4.538,1.048,2.613,97.92855,-5.976,-4.605,75.13,0,109.3,13.58,-5.25,33.6
"2009-02-21 00:38:30",648423,15.38,67.92,5.542,1.591,2.45,97.92516,-5.985,-4.634,75.3,0,109.4,13.58,-5.25,29.9
"2009-02-21 00:39:00",648424,17.25,69.04,6.15,1.039,2.435,97.91323,-6.015,-4.666,75.41,0,109.3,13.58,-5.28,31.0
"2009-02-21 00:39:30",648425,17.64,73.44,4.773,0.954,2.452,97.90321,-6.041,-4.666,75.5,0,109.3,13.57,-5.31,35.4
"2009-02-21 00:40:00",648426,17.19,72.94,4.305,0.395,2.52,97.90649,-6.032,-4.689,75.6,0,109.3,13.58,-5.30,34.9
"2009-02-21 00:40:30",648427,16.7,70.57,4.071,0.749,2.502,97.90522,-6.036,-4.698,75.76,0,109.3,13.58,-5.30,32.6
"2009-02-21 00:41:00",648428,16.63,70.68,4.377,0.92,2.523,97.89125,-6.071,-4.734,75.87,0,109.3,13.58,-5.34,32.7
"2009-02-21 00:41:30",648429,17.85,70.84,4.891,0.832,2.583,97.88499,-6.087,-4.757,76.04,0,109.3,13.58,-5.36,32.8
"2009-02-21 00:42:00",648430,18.12,70.64,3.88,0.656,2.647,97.88693,-6.082,-4.768,76.16,0,109.3,13.58,-5.35,32.6
"2009-02-21 00:42:30",648431,19.96,69.92,4.389,0.709,2.397,97.88939,-6.076,-4.77,76.3,0,109.3,13.58,-5.35,31.9
"2009-02-21 00:43:00",648432,19.44,70.2,4.294,0.702,2.502,97.88396,-6.09,-4.772,76.44,0,109.3,13.58,-5.36,32.2
"2009-02-21 00:43:30",648433,20.02,68.87,4.863,0.745,2.766,97.87518,-6.112,-4.79,76.64,0,109.3,13.58,-5.38,30.9
"2009-02-21 00:44:00",648434,20.29,67.37,4.022,0.694,2.745,97.86726,-6.132,-4.788,76.85,0,109.3,13.59,-5.40,29.4
"2009-02-21 00:44:30",648435,19.38,66.74,4.168,0.763,2.724,97.85961,-6.152,-4.784,77.07,0,109.3,13.59,-5.42,28.7
"2009-02-21 00:45:00",648436,20.42,64.15,4.328,0.739,2.698,97.85933,-6.152,-4.8,77.28,0,109.3,13.6,-5.42,26.2
"2009-02-21 00:45:30",648437,18.94,66.23,4.376,0.748,2.634,97.85933,-6.152,-4.809,77.51,0,109.3,13.6,-5.42,28.2
"2009-02-21 00:46:00",648438,18.78,66.91,3.669,0.712,2.726,97.84743,-6.183,-4.825,77.66,0,109.3,13.6,-5.45,28.9
"2009-02-21 00:46:30",648439,19.23,65.35,4.268,0.905,2.689,97.84367,-6.192,-4.835,77.78,0,109.3,13.6,-5.46,27.3
"2009-02-21 00:47:00",648440,19.77,64.97,4.301,1.117,2.523,97.83617,-6.211,-4.829,77.97,0,109.3,13.6,-5.48,27.0
"2009-02-21 00:47:30",648441,19.78,64.93,4.61,1.125,2.628,97.84058,-6.2,-4.859,78.16,0,109.3,13.6,-5.47,26.9
"2009-02-21 00:48:00",648442,19.85,64.11,3.866,0.535,2.635,97.8309,-6.225,-4.861,78.3,0,109.2,13.61,-5.49,26.1
"2009-02-21 00:48:30",648443,19.3,61.59,3.661,0.906,2.402,97.82005,-6.252,-4.876,78.35,0,109.3,13.61,-5.52,23.6
"2009-02-21 00:49:00",648444,18.48,65.81,5.539,0.818,2.42,97.81489,-6.265,-4.932,78.28,0,109.3,13.61,-5.54,27.8
"2009-02-21 00:49:30",648445,20.43,63.82,3.078,0.839,2.141,97.79703,-6.311,-4.944,78.29,0,109.3,13.61,-5.58,25.8
"2009-02-21 00:50:00",648446,20.18,60.44,4.067,0.577,2.313,97.78257,-6.348,-4.994,78.28,0,109.3,13.61,-5.62,22.4
"2009-02-21 00:50:30",648447,19.94,60.25,4.296,0.803,2.223,97.75868,-6.408,-5.028,78.25,0,109.3,13.61,-5.68,22.2
"2009-02-21 00:51:00",648448,19.44,60.87,4.97,1.108,2.312,97.74671,-6.439,-5.054,78.25,0,109.3,13.61,-5.71,22.9
"2009-02-21 00:51:30",648449,18.65,65.73,4.724,0.842,2.359,97.72547,-6.493,-5.109,78.26,0,109.3,13.61,-5.76,27.7
"2009-02-21 00:52:00",648450,19.01,63.36,4.296,0.929,2.129,97.70507,-6.545,-5.148,78.26,0,109.2,13.62,-5.82,25.4
"2009-02-21 00:52:30",648451,20.41,63.81,4.496,0.858,1.959,97.68864,-6.587,-5.192,78.35,0,109.3,13.62,-5.86,25.8
"2009-02-21 00:53:00",648452,20.82,61.94,3.939,0.678,1.966,97.67023,-6.634,-5.236,78.29,0,109.3,13.62,-5.90,23.9
"2009-02-21 00:53:30",648453,20.9,60.15,4.263,0.766,1.862,97.647,-6.693,-5.273,78.2,0,109.3,13.62,-5.96,22.2
"2009-02-21 00:54:00",648454,21.26,61.04,3.605,0.898,2.092,97.61726,-6.768,-5.325,78.12,0,109.2,13.62,-6.04,23.0
"2009-02-21 00:54:30",648455,20,58.89,4.369,1.343,1.982,97.5895,-6.839,-5.392,77.95,0,109.2,13.62,-6.11,20.9
"2009-02-21 00:55:00",648456,19.16,61.32,4.708,1.154,2,97.56059,-6.913,-5.469,77.96,0,109.2,13.63,-6.18,23.3
"2009-02-21 00:55:30",648457,20.65,60.39,4.393,1.18,1.864,97.54851,-6.943,-5.509,77.98,0,109.2,13.62,-6.22,22.4
"2009-02-21 00:56:00",648458,19.84,60.94,3.507,1.142,1.855,97.53027,-6.99,-5.573,77.76,0,109.2,13.62,-6.26,22.9
"2009-02-21 00:56:30",648459,19.69,58.87,3.951,0.893,1.748,97.50551,-7.053,-5.609,77.61,0,109.2,13.62,-6.33,20.9
"2009-02-21 00:57:00",648460,19.68,60.35,4.283,1.164,1.647,97.49183,-7.088,-5.669,77.54,0,109.2,13.62,-6.36,22.3
"2009-02-21 00:57:30",648461,19.47,58.27,4.037,0.985,1.409,97.46799,-7.148,-5.736,77.68,0,109.2,13.62,-6.42,20.3
"2009-02-21 00:58:00",648462,20.05,59.56,4.784,1.168,1.774,97.44275,-7.212,-5.793,77.86,0,109.2,13.63,-6.49,21.6
"2009-02-21 00:58:30",648463,19.96,58.52,5.423,0.992,1.657,97.42874,-7.248,-5.842,77.99,0,109.2,13.63,-6.52,20.5
"2009-02-21 00:59:00",648464,20.63,59.23,4.219,1.202,1.689,97.4103,-7.295,-5.886,78.03,0,109.2,13.63,-6.57,21.2
"2009-02-21 00:59:30",648465,20.42,61.52,4.03,0.976,1.621,97.37884,-7.375,-5.952,78,0,109.2,13.63,-6.65,23.5
"2009-02-21 01:00:00",648466,20.63,62.07,4.222,0.811,1.545,97.36522,-7.41,-5.988,77.97,0,109.2,13.63,-6.68,24.1
"2009-02-21 01:00:30",648467,20.3,61.56,3.852,0.732,1.401,97.34476,-7.462,-6.044,77.94,0,109.2,13.63,-6.74,23.6
"2009-02-21 01:01:00",648468,20.36,60.16,4,0.791,1.344,97.31979,-7.525,-6.105,77.63,0,109.2,13.64,-6.80,22.2
"2009-02-21 01:01:30",648469,19.77,59.35,3.824,0.644,1.28,97.30222,-7.57,-6.164,77.42,0,109.2,13.64,-6.84,21.3
"2009-02-21 01:02:00",648470,19.79,59.77,3.932,0.523,1.437,97.27983,-7.627,-6.209,77.4,0,109.2,13.64,-6.90,21.8
"2009-02-21 01:02:30",648471,19.84,58.32,3.755,1.044,1.188,97.25179,-7.698,-6.262,77.41,0,109.2,13.64,-6.97,20.3
"2009-02-21 01:03:00",648472,20.26,58.38,3.68,1.164,1.228,97.24101,-7.726,-6.311,77.42,0,109.2,13.64,-7.00,20.4
"2009-02-21 01:03:30",648473,20.85,60,4.538,0.95,1.211,97.2175,-7.785,-6.358,77.44,0,109.2,13.65,-7.06,22.0
"2009-02-21 01:04:00",648474,18.95,57.63,3.624,0.814,1.283,97.19653,-7.839,-6.401,77.52,0,109.2,13.65,-7.11,19.6
"2009-02-21 01:04:30",648475,19.6,62.96,4.546,0.798,1.206,97.17838,-7.885,-6.443,77.58,0,109.2,13.65,-7.16,25.0
"2009-02-21 01:05:00",648476,18.94,66.12,4.459,0.921,1.097,97.16557,-7.918,-6.484,77.67,0,109.2,13.66,-7.19,28.1
"2009-02-21 01:05:30",648477,18.98,66.37,4.864,1.031,1.129,97.15568,-7.943,-6.534,77.69,0,109.2,13.66,-7.22,28.4
"2009-02-21 01:06:00",648478,19.96,67.23,4.361,0.861,1.204,97.16084,-7.93,-6.583,77.72,0,109.2,13.66,-7.21,29.2
"2009-02-21 01:06:30",648479,20.24,63.64,4.639,0.896,0.982,97.13972,-7.983,-6.597,77.78,0,109.2,13.66,-7.26,25.6
"2009-02-21 01:07:00",648480,20.19,60.27,4.255,0.91,0.916,97.1357,-7.994,-6.623,77.83,0,109.2,13.66,-7.27,22.3
"2009-02-21 01:07:30",648481,19.2,61.79,4.848,1.087,0.914,97.1232,-8.03,-6.667,77.88,0,109.2,13.66,-7.30,23.8
"2009-02-21 01:08:00",648482,19.74,65.98,2.189,0.908,0.915,97.10609,-8.07,-6.701,77.93,0,109.2,13.66,-7.35,28.0
"2009-02-21 01:08:30",648483,20.07,61.95,3.787,1.01,0.919,97.10689,-8.07,-6.726,78,0,109.2,13.66,-7.34,24.0
"2009-02-21 01:09:00",648484,19.94,62.58,4.33,0.89,0.831,97.08163,-8.13,-6.766,77.95,0,109.2,13.66,-7.41,24.6
"2009-02-21 01:09:30",648485,19.19,64.94,4.403,0.968,0.903,97.07483,-8.15,-6.789,77.91,0,109.2,13.67,-7.43,26.9
"2009-02-21 01:10:00",648486,18.3,64.68,4.534,0.893,0.963,97.07114,-8.16,-6.81,77.93,0,109.2,13.67,-7.43,26.7
"2009-02-21 01:10:30",648487,19.38,67.59,3.087,1.204,0.709,97.04393,-8.23,-6.842,77.97,0,109.2,13.67,-7.50,29.6
"2009-02-21 01:11:00",648488,19.18,63.9,4.298,0.986,0.904,97.04081,-8.23,-6.86,77.99,0,109.2,13.67,-7.51,25.9
"2009-02-21 01:11:30",648489,19.89,64.56,4.116,0.861,0.777,97.04081,-8.23,-6.874,78.01,0,109.2,13.67,-7.51,26.6
"2009-02-21 01:12:00",648490,19.45,63.14,3.836,0.834,0.898,97.02721,-8.27,-6.91,78.05,0,109.2,13.67,-7.55,25.1
"2009-02-21 01:12:30",648491,19.72,62.88,3.746,0.717,0.794,97.00709,-8.32,-6.937,78.14,0,109.2,13.67,-7.60,24.9
"2009-02-21 01:13:00",648492,19.44,64.16,3.19,1.07,0.684,97.00681,-8.32,-6.952,78.25,0,109.2,13.67,-7.60,26.2
"2009-02-21 01:13:30",648493,19.87,64.55,3.463,0.845,0.794,97.00481,-8.33,-6.997,78.4,0,109.2,13.67,-7.60,26.6
"2009-02-21 01:14:00",648494,19.56,65.13,3.144,0.842,0.986,96.98979,-8.36,-7.004,78.55,0,109.2,13.67,-7.64,27.1
"2009-02-21 01:14:30",648495,19.26,65.61,2.558,0.929,0.628,96.97813,-8.39,-7.023,78.68,0,109.1,13.67,-7.67,27.6
"2009-02-21 01:15:00",648496,19.65,64.56,2.787,0.965,0.869,96.97608,-8.4,-7.036,78.78,0,109.1,13.68,-7.68,26.6
"2009-02-21 01:15:30",648497,20.55,66.81,4.403,1.023,0.701,96.98213,-8.38,-7.057,78.93,0,109.1,13.68,-7.66,28.8
"2009-02-21 01:16:00",648498,20.26,65.89,2.581,0.87,0.833,96.98164,-8.39,-7.06,79.09,0,109.1,13.68,-7.66,27.9
"2009-02-21 01:16:30",648499,18.55,65.97,4.098,0.854,0.791,96.97055,-8.41,-7.084,79.23,0,109.1,13.68,-7.69,28.0
"2009-02-21 01:17:00",648500,19.78,67.01,2.663,1.086,0.598,96.95808,-8.45,-7.097,79.34,0,109.1,13.68,-7.72,29.0
"2009-02-21 01:17:30",648501,19.37,65.41,3.578,0.929,0.69,96.96076,-8.44,-7.117,79.47,0,109.1,13.68,-7.72,27.4
"2009-02-21 01:18:00",648502,19.45,63.17,4.084,0.841,0.862,96.96296,-8.43,-7.119,79.59,0,109.1,13.69,-7.71,25.2
"2009-02-21 01:18:30",648503,18.72,64.32,2.944,1.226,0.565,96.96432,-8.43,-7.128,79.71,0,109.1,13.69,-7.71,26.3
"2009-02-21 01:19:00",648504,18.66,64.68,4.122,1.237,0.69,96.95498,-8.45,-7.156,79.82,0,109.1,13.69,-7.73,26.7
"2009-02-21 01:19:30",648505,19.29,62.82,3.278,1.15,0.758,96.94479,-8.48,-7.162,79.96,0,109.1,13.69,-7.76,24.8
"2009-02-21 01:20:00",648506,21.01,66.64,4.647,0.967,0.882,96.94164,-8.49,-7.187,80,0,109.1,13.69,-7.77,28.6
"2009-02-21 01:20:30",648507,19.93,64.37,4.013,0.851,0.729,96.93591,-8.5,-7.188,80.1,0,109.1,13.69,-7.78,26.4
"2009-02-21 01:21:00",648508,19.28,65.16,3.563,1.184,0.733,96.93609,-8.5,-7.17,80.2,0,109.1,13.69,-7.78,27.2
"2009-02-21 01:21:30",648509,17.65,62.2,4.174,1.211,0.669,96.93581,-8.5,-7.196,80.3,0,109.1,13.7,-7.78,24.2
"2009-02-21 01:22:00",648510,17.11,61.21,3.208,0.928,0.748,96.93774,-8.5,-7.206,80.3,0,109.1,13.7,-7.77,23.2
"2009-02-21 01:22:30",648511,17.72,62.32,3.221,1.53,0.548,96.93774,-8.5,-7.221,80.4,0,109.1,13.7,-7.77,24.3
"2009-02-21 01:23:00",648512,18.66,63.75,4.564,1.112,0.624,96.93348,-8.51,-7.22,80.5,0,109.1,13.7,-7.79,25.8
"2009-02-21 01:23:30",648513,20.1,64.36,3.118,1.034,0.481,96.92043,-8.54,-7.25,80.4,0,109.1,13.7,-7.82,26.4
"2009-02-21 01:24:00",648514,19.82,65.4,3.317,0.905,0.617,96.91193,-8.56,-7.252,80.4,0,109.1,13.7,-7.84,27.4
"2009-02-21 01:24:30",648515,18.29,67.02,3.784,1.08,0.624,96.90513,-8.58,-7.255,80.4,0,109.1,13.7,-7.86,29.0
"2009-02-21 01:25:00",648516,17.28,65.86,3.69,1.003,0.493,96.9037,-8.58,-7.256,80.4,0,109.1,13.7,-7.86,27.9
"2009-02-21 01:25:30",648517,16.16,68.53,4.18,1.241,0.399,96.90398,-8.58,-7.266,80.3,0,109.1,13.7,-7.86,30.5
"2009-02-21 01:26:00",648518,16.37,66,4.857,1.089,0.533,96.90313,-8.59,-7.292,80.3,0,109.1,13.7,-7.86,28.0
"2009-02-21 01:26:30",648519,16.86,67.54,3.576,0.803,0.266,96.89171,-8.61,-7.293,80.3,0,109.1,13.7,-7.89,29.5
"2009-02-21 01:27:00",648520,16.93,63.76,3.75,0.773,0.276,96.88093,-8.64,-7.298,80.3,0,109.1,13.71,-7.92,25.8
"2009-02-21 01:27:30",648521,17.23,64.05,4.252,0.937,0.422,96.8796,-8.64,-7.336,80.3,0,109.1,13.71,-7.92,26.1
"2009-02-21 01:28:00",648522,16.93,65.91,3.107,0.812,0.384,96.88342,-8.64,-7.324,80.4,0,109.1,13.71,-7.91,27.9
"2009-02-21 01:28:30",648523,15.99,65.58,4.428,0.766,0.331,96.88589,-8.63,-7.336,80.4,0,109.1,13.71,-7.91,27.6
"2009-02-21 01:29:00",648524,14.98,56.5,5.028,1.091,0.273,96.88892,-8.62,-7.349,80.4,0,109.1,13.7,-7.90,18.5
"2009-02-21 01:29:30",648525,15.58,63.39,3.767,0.949,0.292,96.8803,-8.64,-7.354,80.4,0,109.1,13.7,-7.92,25.4
"2009-02-21 01:30:00",648526,16.68,60.69,5.418,1.348,0.418,96.87369,-8.66,-7.376,80.4,0,109.1,13.7,-7.94,22.7
"2009-02-21 01:30:30",648527,16.56,67.89,5.372,1.203,0.259,96.86742,-8.68,-7.373,80.4,0,109.1,13.71,-7.95,29.9
"2009-02-21 01:31:00",648528,16.8,64.76,4.63,0.999,0.123,96.8612,-8.69,-7.386,80.3,0,109.1,13.71,-7.97,26.8
"2009-02-21 01:31:30",648529,16.42,69.56,3.818,0.938,0.117,96.86147,-8.69,-7.405,80.2,0,109.1,13.71,-7.97,31.6
"2009-02-21 01:32:00",648530,15.96,64.02,3.184,0.921,0.251,96.85526,-8.71,-7.415,80.1,0,109.1,13.71,-7.99,26.0
"2009-02-21 01:32:30",648531,14.93,62.07,4.21,1.297,0.103,96.84383,-8.74,-7.419,80.1,0,109.1,13.71,-8.01,24.1
"2009-02-21 01:33:00",648532,14.44,62.02,3.552,1.053,0.071,96.83699,-8.75,-7.445,80.1,0,109.1,13.71,-8.03,24.0
"2009-02-21 01:33:30",648533,14.38,57.23,3.83,1.212,0.074,96.83293,-8.76,-7.45,80.1,0,109.1,13.71,-8.04,19.2
"2009-02-21 01:34:00",648534,13.65,58.51,4.608,1.121,0.214,96.83402,-8.76,-7.468,80.1,0,109.1,13.72,-8.04,20.5
"2009-02-21 01:34:30",648535,11.82,59.47,5.887,0.935,0.05,96.83458,-8.76,-7.47,80.1,0,109.1,13.72,-8.04,21.5
"2009-02-21 01:35:00",648536,14.76,62.29,4.617,0.905,-0.015,96.83118,-8.77,-7.48,80.1,0,109.1,13.72,-8.05,24.3
"2009-02-21 01:35:30",648537,15.99,56.04,3.923,0.923,-0.031,96.81472,-8.81,-7.509,80.2,0,109.1,13.72,-8.09,18.0
"2009-02-21 01:36:00",648538,16.74,57.05,4.096,1.048,0.138,96.80791,-8.83,-7.513,80.2,0,109.1,13.72,-8.11,19.0
"2009-02-21 01:36:30",648539,18.25,56.45,3.389,1.252,0.095,96.80367,-8.84,-7.525,80.3,0,109.1,13.73,-8.12,18.5
"2009-02-21 01:37:00",648540,16.14,58.6,3.497,1.045,0.138,96.80054,-8.85,-7.506,80.2,0,109.1,13.73,-8.13,20.6
"2009-02-21 01:37:30",648541,15.16,60.24,4.599,0.996,0.234,96.80054,-8.85,-7.528,80.2,0,109.1,13.73,-8.13,22.2
"2009-02-21 01:38:00",648542,14.69,57.52,2.465,1.003,0.21,96.80054,-8.85,-7.516,80.2,0,109.1,13.73,-8.13,19.5
"2009-02-21 01:38:30",648543,13.44,54.28,3.629,1.059,0.021,96.80054,-8.85,-7.529,80.2,0,109.1,13.73,-8.13,16.3
"2009-02-21 01:39:00",648544,15.43,58.34,3.653,0.912,0.059,96.80054,-8.85,-7.538,80.2,0,109.1,13.73,-8.13,20.3
"2009-02-21 01:39:30",648545,13.97,55.6,5.081,1.007,0.062,96.80054,-8.85,-7.553,80.2,0,109.1,13.73,-8.13,17.6
"2009-02-21 01:40:00",648546,13.13,54.25,3.426,0.746,0.241,96.79884,-8.85,-7.543,80.2,0,109.1,13.73,-8.13,16.2
"2009-02-21 01:40:30",648547,12.77,54.85,4.605,0.868,0.184,96.78438,-8.89,-7.56,80.2,0,109.1,13.73,-8.17,16.8
"2009-02-21 01:41:00",648548,16.29,54.88,3.72,1.118,-0.133,96.78068,-8.9,-7.568,80.3,0,109.1,13.73,-8.18,16.9
"2009-02-21 01:41:30",648549,15.48,50.31,4.205,1.264,-0.033,96.77898,-8.9,-7.583,80.4,0,109.1,13.73,-8.18,12.3
"2009-02-21 01:42:00",648550,14.98,52.53,4.956,0.937,0.143,96.77359,-8.91,-7.592,80.5,0,109.1,13.73,-8.19,14.5
"2009-02-21 01:42:30",648551,13.37,52.99,3.978,0.824,-0.04,96.76991,-8.92,-7.593,80.6,0,109.1,13.73,-8.20,15.0
"2009-02-21 01:43:00",648552,12.82,57.43,3.478,0.937,-0.076,96.7665,-8.93,-7.585,80.6,0,109.1,13.74,-8.21,19.4
"2009-02-21 01:43:30",648553,12.15,55.75,4.084,0.91,-0.059,96.76678,-8.93,-7.601,80.6,0,109.1,13.74,-8.21,17.8
"2009-02-21 01:44:00",648554,11.99,54.59,3.033,0.792,0.089,96.76367,-8.94,-7.623,80.6,0,109.1,13.74,-8.22,16.6
"2009-02-21 01:44:30",648555,13.48,53.44,3.497,0.717,-0.175,96.74834,-8.98,-7.647,80.7,0,109.1,13.74,-8.26,15.4
"2009-02-21 01:45:00",648556,14.01,56.34,4.62,0.913,-0.119,96.74862,-8.98,-7.632,80.8,0,109.1,13.74,-8.26,18.3
"2009-02-21 01:45:30",648557,12.47,55.19,5.215,0.715,-0.108,96.7446,-8.99,-7.646,80.9,0,109.1,13.74,-8.27,17.2
"2009-02-21 01:46:00",648558,12.38,48.9,5.53,1.942,-0.031,96.74172,-9,-7.655,80.9,0,109.1,13.73,-8.28,10.9
"2009-02-21 01:46:30",648559,12.2,53.3,7.132,1.162,-0.155,96.73878,-9,-7.664,81,0,109.1,13.73,-8.28,15.3
"2009-02-21 01:47:00",648560,12.36,52.14,3.917,0.94,-0.193,96.73823,-9,-7.67,81.1,0,109.1,13.73,-8.28,14.1
"2009-02-21 01:47:30",648561,13.06,46.4,4.476,1.175,-0.16,96.74592,-8.98,-7.679,81.2,0,109.1,13.73,-8.26,8.4
"2009-02-21 01:48:00",648562,15.25,49.84,4.163,0.826,0.01,96.74976,-8.98,-7.679,81.3,0,109.1,13.74,-8.25,11.8